TimeEDT,TemperatureF,Dew PointF,Humidity,Sea Level PressureIn,VisibilityMPH,Wind Direction,Wind SpeedMPH,Gust SpeedMPH,PrecipitationIn,Events,Conditions,WindDirDegrees,DateUTC
12:54 AM,71.1,62.1,73,29.90,10.0,SSW,5.8,-,N/A,,Scattered Clouds,200,2013-08-08 04:54:00
1:54 AM,72.0,63.0,73,29.89,10.0,SSW,6.9,-,N/A,,Mostly Cloudy,200,2013-08-08 05:54:00
2:39 AM,69.8,66.2,88,29.91,8.0,SSW,6.9,-,0.08,Rain-Thunderstorm,Light Thunderstorms and Rain,210,2013-08-08 06:39:00
2:52 AM,69.8,66.2,88,29.92,2.5,SW,10.4,-,0.12,Rain-Thunderstorm,Thunderstorms and Rain,220,2013-08-08 06:52:00
2:54 AM,70.0,66.0,87,29.91,2.5,SW,12.7,18.4,0.12,Rain-Thunderstorm,Heavy Thunderstorms and Rain,220,2013-08-08 06:54:00
2:57 AM,69.8,66.2,88,29.93,1.2,SW,12.7,-,0.02,Rain-Thunderstorm,Heavy Thunderstorms and Rain,220,2013-08-08 06:57:00
3:21 AM,68.0,66.2,94,29.93,3.0,SW,5.8,-,0.28,Rain-Thunderstorm,Thunderstorms and Rain,230,2013-08-08 07:21:00
3:45 AM,68.0,66.2,94,29.94,4.0,SSW,9.2,-,0.35,Rain,Rain,210,2013-08-08 07:45:00
3:54 AM,69.1,66.9,93,29.93,10.0,SW,8.1,-,0.36,Rain,Light Rain,230,2013-08-08 07:54:00
4:20 AM,68.0,66.2,94,29.93,6.0,South,8.1,-,0.01,Rain,Rain,190,2013-08-08 08:20:00
4:54 AM,66.9,64.9,93,29.92,10.0,SSW,4.6,-,0.02,,Mostly Cloudy,210,2013-08-08 08:54:00
5:54 AM,66.9,64.9,93,29.94,10.0,WNW,4.6,-,N/A,,Mostly Cloudy,290,2013-08-08 09:54:00
6:54 AM,66.9,66.0,97,29.94,8.0,South,4.6,-,N/A,,Scattered Clouds,180,2013-08-08 10:54:00
7:54 AM,69.1,66.0,90,29.94,10.0,South,5.8,-,N/A,,Scattered Clouds,170,2013-08-08 11:54:00
8:54 AM,72.0,66.9,84,29.95,10.0,SSW,3.5,-,N/A,,Scattered Clouds,200,2013-08-08 12:54:00
9:22 AM,71.6,66.2,83,29.96,10.0,SSW,4.6,-,N/A,,Mostly Cloudy,200,2013-08-08 13:22:00
9:50 AM,73.4,68.0,83,29.95,10.0,SW,4.6,-,N/A,,Mostly Cloudy,220,2013-08-08 13:50:00
9:54 AM,73.9,68.0,82,29.94,10.0,SW,4.6,-,N/A,,Mostly Cloudy,220,2013-08-08 13:54:00
10:21 AM,73.4,68.0,83,29.96,10.0,SW,3.5,-,N/A,,Mostly Cloudy,230,2013-08-08 14:21:00
10:50 AM,75.2,68.0,78,29.96,10.0,WSW,4.6,-,N/A,,Mostly Cloudy,250,2013-08-08 14:50:00
10:54 AM,75.0,68.0,79,29.95,10.0,WSW,4.6,-,N/A,,Mostly Cloudy,240,2013-08-08 14:54:00
11:46 AM,78.8,68.0,69,29.97,10.0,WSW,5.8,-,N/A,,Mostly Cloudy,250,2013-08-08 15:46:00
11:54 AM,77.0,68.0,74,29.96,10.0,West,6.9,-,N/A,,Mostly Cloudy,270,2013-08-08 15:54:00
12:54 PM,79.0,68.0,69,29.95,10.0,West,5.8,-,N/A,,Mostly Cloudy,280,2013-08-08 16:54:00
1:54 PM,81.0,69.1,67,29.95,10.0,WSW,6.9,-,N/A,,Mostly Cloudy,250,2013-08-08 17:54:00
2:54 PM,81.0,68.0,65,29.94,10.0,WSW,8.1,-,N/A,,Mostly Cloudy,240,2013-08-08 18:54:00
3:54 PM,82.0,69.1,65,29.92,10.0,SW,8.1,-,N/A,,Mostly Cloudy,230,2013-08-08 19:54:00
4:54 PM,78.1,71.1,79,29.92,10.0,North,9.2,-,N/A,,Mostly Cloudy,350,2013-08-08 20:54:00
5:54 PM,78.1,70.0,76,29.92,10.0,NE,5.8,-,N/A,,Mostly Cloudy,50,2013-08-08 21:54:00
6:54 PM,78.1,70.0,76,29.92,10.0,NE,6.9,-,0.00,Rain,Light Rain,40,2013-08-08 22:54:00
7:54 PM,75.0,71.1,87,29.93,7.0,ENE,6.9,-,0.01,,Mostly Cloudy,70,2013-08-08 23:54:00
8:30 PM,75.2,71.6,89,29.93,8.0,NE,5.8,-,N/A,,Overcast,50,2013-08-09 00:30:00
8:54 PM,73.9,69.1,85,29.92,10.0,East,9.2,-,N/A,,Mostly Cloudy,100,2013-08-09 00:54:00
9:13 PM,73.4,69.8,88,29.94,10.0,East,5.8,-,N/A,,Mostly Cloudy,80,2013-08-09 01:13:00
9:54 PM,72.0,68.0,87,29.93,10.0,East,6.9,-,N/A,,Mostly Cloudy,90,2013-08-09 01:54:00
10:54 PM,72.0,68.0,87,29.92,10.0,East,3.5,-,N/A,Thunderstorm,Thunderstorm,80,2013-08-09 02:54:00
11:54 PM,72.0,69.1,91,29.92,9.0,WNW,12.7,-,0.00,Rain-Thunderstorm,Light Thunderstorms and Rain,300,2013-08-09 03:54:00
11:58 PM,71.6,69.8,94,29.93,4.0,Variable,4.6,-,0.00,Rain-Thunderstorm,Heavy Thunderstorms and Rain,0,2013-08-09 03:58:00